When you browse on this site, cookies collect data to enhance your experience and personalize the content and advertising you see.
Visit our Privacy Policy to learn more. By continuing to use the site, you agree to this use of cookies and data.
  • In Hungary
  • List of Countries
  • For 7 days
  • Water Temperature
  • Satellite Maps
  • Weather Map
  • News
  • Weather Widgets
  • user-avatar
    Login

    Hourly Weather Orta-Stal

    Today, 20 November, Tuesday

    Time Temperature Precipitation Wind Pressure Humidity
    00:00 +6°C° 0 mm 2 mps 727 mmHg 57%
    01:00 +5°C° 0 mm 3 mps 727 mmHg 57%
    02:00 +5°C° 0 mm 3 mps 726 mmHg 56%
    03:00 +5°C° 0 mm 3 mps 726 mmHg 58%
    04:00 +5°C° 0 mm 3 mps 726 mmHg 57%
    05:00 +7°C° 0 mm 2 mps 726 mmHg 56%
    06:00 +7°C° 0 mm 2 mps 725 mmHg 56%
    07:00 +8°C° 0 mm 2 mps 725 mmHg 53%
    08:00 +10°C° 0 mm 2 mps 725 mmHg 51%
    09:00 +12°C° 0 mm 2 mps 724 mmHg 48%
    10:00 +13°C° 0 mm 2 mps 724 mmHg 47%
    11:00 +14°C° 0 mm 2 mps 723 mmHg 46%
    12:00 +15°C° 0 mm 2 mps 723 mmHg 45%
    13:00 +15°C° 0 mm 1 mps 722 mmHg 48%
    14:00 +15°C° 0 mm 1 mps 722 mmHg 51%
    15:00 +15°C° 0 mm 1 mps 721 mmHg 53%
    16:00 +14°C° 0 mm 2 mps 721 mmHg 57%
    17:00 +13°C° 0 mm 2 mps 721 mmHg 61%
    18:00 +10°C° 0 mm 2 mps 721 mmHg 65%
    19:00 +10°C° 0 mm 2 mps 721 mmHg 64%
    20:00 +10°C° 0 mm 2 mps 721 mmHg 63%
    21:00 +10°C° 0 mm 2 mps 720 mmHg 62%
    22:00 +10°C° 0 mm 2 mps 720 mmHg 63%
    23:00 +10°C° 0 mm 2 mps 720 mmHg 64%

    Tomorrow, 21 November, Wednesday

    Time Temperature Precipitation Wind Pressure Humidity
    00:00 +10°C° 0 mm 2 mps 720 mmHg 65%
    01:00 +9°C° 0 mm 3 mps 720 mmHg 67%
    02:00 +9°C° 0 mm 3 mps 720 mmHg 69%
    03:00 +8°C° 0 mm 3 mps 720 mmHg 71%
    04:00 +8°C° 0 mm 3 mps 720 mmHg 73%
    05:00 +8°C° 0 mm 3 mps 720 mmHg 75%
    06:00 +7°C° 0 mm 3 mps 720 mmHg 77%
    07:00 +8°C° 0 mm 3 mps 721 mmHg 73%
    08:00 +9°C° 0 mm 3 mps 721 mmHg 70%
    09:00 +10°C° 0 mm 3 mps 721 mmHg 66%
    10:00 +10°C° 0 mm 3 mps 721 mmHg 66%
    11:00 +11°C° 0 mm 3 mps 721 mmHg 66%
    12:00 +11°C° 0 mm 4 mps 721 mmHg 66%
    13:00 +10°C° 0.2 mm 4 mps 721 mmHg 72%
    14:00 +8°C° 0.2 mm 4 mps 721 mmHg 77%
    15:00 +7°C° 0.2 mm 4 mps 721 mmHg 83%
    16:00 +8°C° 0.6 mm 3 mps 721 mmHg 85%
    17:00 +7°C° 0.6 mm 3 mps 722 mmHg 88%
    18:00 +7°C° 0.6 mm 3 mps 722 mmHg 90%
    19:00 +7°C° 0.3 mm 3 mps 722 mmHg 89%
    20:00 +7°C° 0.3 mm 3 mps 722 mmHg 89%
    21:00 +6°C° 0.3 mm 2 mps 722 mmHg 89%
    22:00 +6°C° 0.1 mm 2 mps 722 mmHg 89%
    23:00 +6°C° 0.1 mm 2 mps 722 mmHg 90%

    Day after tomorrow, 22 November, Thursday

    Time Temperature Precipitation Wind Pressure Humidity
    00:00 +6°C° 0.1 mm 2 mps 722 mmHg 90%
    01:00 +6°C° 0 mm 2 mps 722 mmHg 90%
    02:00 +5°C° 0 mm 2 mps 722 mmHg 90%
    03:00 +5°C° 0 mm 2 mps 722 mmHg 90%
    04:00 +6°C° 0 mm 1 mps 722 mmHg 89%
    05:00 +6°C° 0 mm 1 mps 722 mmHg 89%
    06:00 +6°C° 0 mm 1 mps 722 mmHg 88%
    07:00 +7°C° 0 mm 1 mps 722 mmHg 85%
    08:00 +7°C° 0 mm 2 mps 722 mmHg 83%
    09:00 +7°C° 0 mm 2 mps 722 mmHg 80%
    10:00 +8°C° 0 mm 2 mps 722 mmHg 80%
    11:00 +8°C° 0 mm 2 mps 722 mmHg 80%
    12:00 +9°C° 0 mm 2 mps 722 mmHg 80%
    13:00 +8°C° 0 mm 2 mps 721 mmHg 82%
    14:00 +8°C° 0 mm 2 mps 721 mmHg 84%
    15:00 +8°C° 0 mm 2 mps 721 mmHg 86%
    16:00 +7°C° 0 mm 2 mps 721 mmHg 87%
    17:00 +7°C° 0 mm 2 mps 721 mmHg 88%
    18:00 +7°C° 0 mm 1 mps 721 mmHg 90%
    19:00 +7°C° 0 mm 1 mps 722 mmHg 89%
    20:00 +7°C° 0 mm 1 mps 722 mmHg 88%
    21:00 +7°C° 0 mm 1 mps 722 mmHg 87%
    22:00 +7°C° 0 mm 1 mps 722 mmHg 86%
    23:00 +7°C° 0 mm 1 mps 722 mmHg 85%

    23 November, Friday

    Time Temperature Precipitation Wind Pressure Humidity
    00:00 +7°C° 0 mm 1 mps 722 mmHg 84%
    01:00 +7°C° 0 mm 1 mps 721 mmHg 84%
    02:00 +7°C° 0 mm 1 mps 721 mmHg 84%
    03:00 +7°C° 0 mm 1 mps 721 mmHg 83%
    04:00 +7°C° 0 mm 1 mps 721 mmHg 83%
    05:00 +7°C° 0 mm 1 mps 721 mmHg 83%
    06:00 +7°C° 0 mm 1 mps 721 mmHg 82%
    07:00 +7°C° 0 mm 1 mps 721 mmHg 80%
    08:00 +7°C° 0 mm 2 mps 722 mmHg 77%
    09:00 +8°C° 0 mm 2 mps 722 mmHg 75%
    10:00 +8°C° 0 mm 2 mps 722 mmHg 75%
    11:00 +9°C° 0 mm 2 mps 722 mmHg 75%
    12:00 +9°C° 0 mm 2 mps 721 mmHg 76%
    13:00 +9°C° 0 mm 2 mps 721 mmHg 78%
    14:00 +9°C° 0 mm 2 mps 721 mmHg 81%
    15:00 +8°C° 0 mm 2 mps 722 mmHg 84%
    16:00 +8°C° 0 mm 2 mps 722 mmHg 86%
    17:00 +7°C° 0 mm 2 mps 723 mmHg 88%
    18:00 +6°C° 0 mm 2 mps 724 mmHg 90%
    19:00 +5°C° 0.2 mm 3 mps 724 mmHg 90%
    20:00 +5°C° 0.2 mm 3 mps 725 mmHg 90%
    21:00 +4°C° 0.2 mm 4 mps 726 mmHg 90%
    22:00 +4°C° 0 mm 4 mps 727 mmHg 88%
    23:00 +3°C° 0 mm 4 mps 727 mmHg 87%

    24 November, Saturday

    Time Temperature Precipitation Wind Pressure Humidity
    00:00 +2°C° 0 mm 5 mps 728 mmHg 86%
    01:00 +1°C° 0 mm 4 mps 728 mmHg 86%
    02:00 +1°C° 0 mm 4 mps 729 mmHg 86%
    03:00 +2°C° 0 mm 3 mps 729 mmHg 86%
    04:00 +1°C° 0 mm 3 mps 730 mmHg 86%
    05:00 +1°C° 0 mm 3 mps 730 mmHg 86%
    06:00 +1°C° 0 mm 3 mps 731 mmHg 86%
    07:00 +3°C° 0 mm 2 mps 732 mmHg 83%
    08:00 +3°C° 0 mm 2 mps 732 mmHg 80%
    09:00 +4°C° 0 mm 2 mps 733 mmHg 77%
    10:00 +5°C° 0 mm 2 mps 733 mmHg 75%
    11:00 +5°C° 0 mm 2 mps 733 mmHg 74%
    12:00 +6°C° 0 mm 2 mps 733 mmHg 72%
    13:00 +5°C° 0 mm 3 mps 733 mmHg 73%
    14:00 +5°C° 0 mm 3 mps 733 mmHg 74%
    15:00 +5°C° 0 mm 3 mps 733 mmHg 75%
    16:00 +4°C° 0 mm 3 mps 733 mmHg 77%
    17:00 +4°C° 0 mm 3 mps 733 mmHg 79%
    18:00 +3°C° 0 mm 3 mps 733 mmHg 80%
    19:00 +3°C° 0 mm 4 mps 733 mmHg 79%
    20:00 +3°C° 0 mm 4 mps 733 mmHg 77%
    21:00 +4°C° 0 mm 4 mps 733 mmHg 76%
    22:00 +4°C° 0 mm 4 mps 732 mmHg 74%
    23:00 +4°C° 0 mm 3 mps 732 mmHg 72%

    25 November, Sunday

    Time Temperature Precipitation Wind Pressure Humidity
    00:00 +4°C° 0 mm 3 mps 731 mmHg 71%
    01:00 +4°C° 0 mm 3 mps 731 mmHg 69%
    02:00 +4°C° 0 mm 3 mps 730 mmHg 68%
    03:00 +4°C° 0 mm 3 mps 729 mmHg 67%
    04:00 +4°C° 0 mm 3 mps 729 mmHg 65%
    05:00 +5°C° 0 mm 3 mps 728 mmHg 64%
    06:00 +5°C° 0 mm 3 mps 728 mmHg 62%
    07:00 +7°C° 0 mm 2 mps 727 mmHg 59%
    08:00 +8°C° 0 mm 2 mps 727 mmHg 55%
    09:00 +10°C° 0 mm 2 mps 727 mmHg 52%
    10:00 +12°C° 0 mm 2 mps 726 mmHg 51%
    11:00 +12°C° 0 mm 2 mps 725 mmHg 50%
    12:00 +13°C° 0 mm 2 mps 725 mmHg 49%
    13:00 +13°C° 0 mm 2 mps 724 mmHg 52%
    14:00 +12°C° 0 mm 1 mps 724 mmHg 56%
    15:00 +12°C° 0 mm 1 mps 724 mmHg 59%
    16:00 +11°C° 0 mm 1 mps 724 mmHg 62%
    17:00 +10°C° 0 mm 1 mps 724 mmHg 64%
    18:00 +9°C° 0 mm 1 mps 724 mmHg 67%
    19:00 +9°C° 0 mm 1 mps 723 mmHg 65%
    20:00 +8°C° 0 mm 1 mps 723 mmHg 64%
    21:00 +8°C° 0 mm 1 mps 723 mmHg 62%
    22:00 +8°C° 0 mm 1 mps 723 mmHg 61%
    23:00 +8°C° 0 mm 1 mps 723 mmHg 61%
    Show more